{"data":{"norad_id":52368,"intl_designator":"2022-045AP","name":"STARLINK-3834","alt_names":[],"object_type":"PAYLOAD","status":"ACTIVE","operator":null,"country":"US","launch_date":"2022-04-29","launch_site_code":"AFETR","launch_vehicle":null,"mission":null,"orbit_class":"UNKNOWN","rcs_meters":null,"size_class":null,"mass_kg":null,"dimensions":null,"purposes":["comms"],"wikipedia_slug":null,"has_3d_model":false,"image_url":null,"decayed_at":null,"tle_current":{"epoch":"2026-09-19T23:24:18.232128Z","epoch_age_seconds":105022,"freshness":"FRESH","line1":"1 52368U 22045AP  26262.97521102  .00000123  00000+0  14775-4 0  9995","line2":"2 52368  53.1593  27.8270 0001050  72.5557 287.5560 15.34393630245365","mean_motion":15.3439363,"eccentricity":0.000105,"inclination_deg":53.1593,"raan_deg":27.827,"arg_perigee_deg":72.5557,"mean_anomaly_deg":287.556,"bstar":1.4775e-5,"rev_number":24536,"period_min":93.848147688152,"perigee_km":462.00388304183,"apogee_km":463.44046346821,"semimajor_km":6840.859173255,"source":"CELESTRAK","updated_at":"2026-09-20T09:00:40.028259Z"}}}